This demonstration page uses our WeatherBlox Daily Observations layout. Learn more.

Left ArrowRight Arrow

36.17497, -115.13722

Hourly Observations for September 7, 2017

Temp ( °F °C ) Dew Point ( °F °C ) Humidity (%) Winds ( mph kmh ) Pressure ( in mb ) Visibility ( mi km ) Precip ( " mm )
12:53 am 00:53 Clear 89 31.7 47 8.3 23 23 S 3 6 29.88 1012 10 16 0.00 0.00
1:53 am 01:53 Clear 87 30.6 51 10.6 29 29 WNW 5 7 29.88 1012 10 16 0.00 0.00
2:53 am 02:53 Clear 85 29.4 51 10.6 31 31 NNW 5 7 29.88 1012 10 16 0.00 0.00
3:53 am 03:53 Clear 83 28.3 49 9.4 31 31 ENE 7 11 29.89 1012 10 16 0.00 0.00
4:53 am 04:53 Clear 82 27.8 48 8.9 31 31 E 5 7 29.90 1013 10 16 0.00 0.00
5:53 am 05:53 Clear 83 28.3 49 9.4 31 31 W 3 6 29.91 1013 10 16 0.00 0.00
6:53 am 06:53 Sunny 81 27.2 50 10 34 34 NW 5 7 29.92 1013 10 16 0.00 0.00
7:53 am 07:53 Sunny 84 28.9 50 10 31 31 NW 5 7 29.92 1013 10 16 0.00 0.00
8:53 am 08:53 Sunny 86 30 51 10.6 30 30 Calm 29.92 1013 10 16 0.00 0.00
9:53 am 09:53 Sunny 90 32.2 49 9.4 24 24 Calm 29.93 1013 10 16 0.00 0.00
10:53 am 10:53 Sunny 92 33.3 48 8.9 22 22 S 8 13 29.93 1013 10 16 0.00 0.00
11:53 am 11:53 Sunny 93 33.9 47 8.3 21 21 S 6 9 29.91 1013 10 16 0.00 0.00
12:53 pm 12:53 Sunny 95 35 47 8.3 19 19 S 9 15 29.88 1012 10 16 0.00 0.00
1:53 pm 13:53 Sunny 98 36.7 48 8.9 18 18 SE 12 19 29.84 1011 10 16 0.00 0.00
2:53 pm 14:53 Sunny 98 36.7 47 8.3 17 17 SE 15 24 29.81 1010 10 16 0.00 0.00
3:53 pm 15:53 Partly Cloudy 94 34.4 47 8.3 20 20 SW 18 30 29.83 1010 10 16 0.00 0.00
4:10 pm 16:10 Mostly Cloudy with Light Rain 92 33.3 43 6.1 18 18 ESE 18 30 29.68 1005 10 16 0.00 0.03
4:17 pm 16:17 Mostly Cloudy with Light Rain 92 33.3 41 5 17 17 SE 14 22 29.68 1005 10 16 0.00 0.03
4:53 pm 16:53 Sunny 92 33.3 46 7.8 21 21 SSE 15 24 29.83 1010 10 16 0.00 0.03
5:13 pm 17:13 Partly Cloudy with Nearby Thunderstorms 90 32.2 49 9.4 24 24 S 18 30 29.68 1005 10 16 0.00 0.00
5:38 pm 17:38 Partly Cloudy with Thunderstorms 93 33.9 41 5 16 16 SE 10 17 29.65 1004 10 16 0.00 0.00
5:53 pm 17:53 Sunny 93 33.9 44 6.7 18 18 WSW 8 13 29.80 1009 10 16 0.00 0.00
6:08 pm 18:08 Sunny with Thunderstorms 93 33.9 46 7.8 20 20 SW 8 13 29.65 1004 10 16 0.00 0.00
6:29 pm 18:29 Sunny with Nearby Thunderstorms 92 33.3 47 8.3 21 21 SSW 10 17 29.68 1005 10 16 0.00 0.00
6:53 pm 18:53 Sunny with Thunderstorms 91 32.8 47 8.3 22 22 SW 12 19 29.80 1009 10 16 0.00 0.00
7:42 pm 19:42 Clear 92 33.3 44 6.7 19 19 SW 6 9 29.65 1004 10 16 0.00 0.00
7:53 pm 19:53 Clear 92 33.3 44 6.7 19 19 WSW 17 28 29.81 1009 10 16 0.00 0.00
8:53 pm 20:53 Mostly Clear 92 33.3 43 6.1 18 18 SW 13 20 29.82 1010 10 16 0.00 0.00
9:53 pm 21:53 Mostly Clear 89 31.7 47 8.3 23 23 SSE 7 11 29.82 1010 10 16 0.00 0.00
10:53 pm 22:53 Clear 86 30 51 10.6 30 30 SSE 3 6 29.83 1010 10 16 0.00 0.00
11:53 pm 23:53 Clear 85 29.4 51 10.6 31 31 S 5 7 29.83 1010 10 16 0.00 0.00

Powered by AerisWeather